Date,TemperatureHighF,TemperatureAvgF,TemperatureLowF,DewpointHighF,DewpointAvgF,DewpointLowF,HumidityHigh,HumidityAvg,HumidityLow,PressureMaxIn,PressureMinIn,WindSpeedMaxMPH,WindSpeedAvgMPH,GustSpeedMaxMPH,PrecipitationSumIn
2013-9-1,70.9,59.7,50.7,61.2,56.1,50.2,98,89,63,29.90,29.85,24,10,30,0.00
2013-9-2,74.8,64.5,58.3,63.5,60.8,56.3,98,88,67,29.91,29.85,23,11,26,0.00
2013-9-3,72.7,61.9,53.2,60.4,56.1,51.8,96,83,50,29.95,29.88,27,10,30,0.00
2013-9-4,72.1,62.1,53.8,60.4,56.6,52.3,97,83,62,29.98,29.89,28,8,32,0.00
2013-9-5,73.4,63.0,54.5,58.3,55.5,52.9,96,78,56,29.96,29.90,25,9,28,0.00
2013-9-6,86.0,69.3,54.9,56.8,52.0,47.7,88,59,31,29.94,29.80,21,4,23,0.00
2013-9-7,91.2,70.9,53.8,57.0,51.7,46.8,95,55,22,29.82,29.77,17,4,20,0.00
2013-9-8,76.3,59.6,50.5,59.9,53.6,49.8,98,83,50,29.83,29.73,18,6,22,0.00
2013-9-9,81.1,60.1,49.8,61.0,54.2,49.3,98,84,42,29.77,29.68,20,7,23,0.00
2013-9-10,72.7,61.3,54.9,60.4,57.6,54.0,98,89,65,29.86,29.69,19,5,22,0.00
2013-9-11,68.4,62.9,59.7,60.1,58.7,57.9,96,86,74,29.96,29.86,13,5,17,0.00
2013-9-12,70.9,60.4,55.0,61.0,57.8,54.1,98,92,70,29.94,29.85,26,8,28,0.00
2013-9-13,69.8,58.4,53.2,60.6,55.2,52.7,98,90,67,29.86,29.71,24,8,28,0.00
2013-9-14,66.4,57.3,52.5,58.3,54.5,52.0,98,91,75,29.78,29.69,23,10,28,0.00
2013-9-15,71.8,59.9,50.7,59.2,55.4,49.8,100,86,62,29.81,29.72,24,10,27,0.00
2013-9-16,76.3,61.6,51.4,60.1,55.4,50.5,98,82,55,29.85,29.73,19,8,26,0.00
2013-9-17,70.2,60.3,52.5,56.7,53.4,49.5,96,79,60,29.85,29.76,29,12,34,0.00
2013-9-18,78.8,61.8,52.5,52.0,48.9,45.1,84,65,31,29.87,29.78,20,4,24,0.00
2013-9-19,82.2,61.6,50.4,53.8,49.6,45.9,93,69,33,29.81,29.72,16,4,19,0.00
2013-9-20,71.2,60.0,48.9,61.7,55.7,47.3,96,86,68,29.79,29.72,22,7,27,0.00
2013-9-21,65.5,60.0,53.8,61.0,57.1,52.3,97,91,72,29.86,29.74,23,9,27,0.43
2013-9-22,69.3,58.6,50.7,55.8,53.0,49.8,98,83,58,29.96,29.85,28,6,28,0.00
2013-9-23,78.3,62.7,55.0,61.9,55.5,50.2,94,78,55,29.97,29.89,20,5,22,0.00
2013-9-24,71.8,60.1,53.8,56.1,52.8,48.6,95,78,53,29.94,29.87,31,11,35,0.00
2013-9-25,65.7,56.5,48.9,50.5,47.6,44.1,91,73,52,29.89,29.79,29,10,36,0.00
2013-9-26,70.5,58.2,45.9,47.7,43.7,38.1,81,61,33,29.95,29.81,17,4,22,0.00
2013-9-27,76.8,60.7,50.0,47.3,42.3,34.2,88,55,24,30.04,29.95,22,4,23,0.00
2013-9-28,78.3,59.7,48.4,56.5,48.8,40.1,93,71,26,30.04,29.98,27,6,28,0.00
2013-9-29,69.1,61.0,53.8,61.9,58.3,52.7,98,91,76,30.04,30.00,17,6,20,0.00
2013-9-30,71.1,62.2,51.6,63.9,58.3,44.1,100,88,64,30.01,29.94,16,8,19,0.04